Tucson Davis Monthan, AZ

8:31 PM MST on June 24, 2018 (GMT -0700)
Davis-Monthan Air Force Base

Weather History for KDMA - December, 2017

Change the Weather History Date:

Friday, December 1, 2017

  Actual Average Record
Temperature  
Mean Temperature 70 °F -  
Max Temperature 77 °F 66 °F 83 °F (1973)
Min Temperature 62 °F 38 °F 29 °F (1986)
Cooling Degree Days 4    
Growing Degree Days 20 (Base 50)    
Moisture  
Dew Point 30 °F    
Average Humidity 25    
Maximum Humidity 29    
Minimum Humidity 18    
Precipitation  
Precipitation 0.00 in - - ()
Sea Level Pressure  
Sea Level Pressure 29.95 in    
Wind  
Wind Speed 6 mph (SE)    
Max Wind Speed 12 mph    
Max Gust Speed -    
Visibility 10 miles    
Events      
Averages and records for this station are not official NWS values.
T = Trace of Precipitation, MM = Missing Value Source: NWS Daily Summary

Daily Weather History Graph

Daily Weather History Graph

Search for Another Location

Airport or City:

Astronomy

Dec. 01, 2017 Rise Set
Actual Time 7:06 AM MST 5:18 PM MST
Civil Twilight 6:40 AM MST 5:45 PM MST
Nautical Twilight 6:09 AM MST 6:15 PM MST
Astronomical Twilight 5:40 AM MST 6:45 PM MST
Moon 4:10 PM MST (12/1) 4:38 AM MST (12/1)
Length of Visible Light 11h 05m
Length of Day
10h 11m
Waxing Gibbous, 95% of the Moon is Illuminated
Dec 1
Waxing Gibbous
Dec 3
Full
Dec 10
Last Quarter
Dec 17
New
Dec 26
First Quarter

Hourly Weather History & Observations

Time (MST) Temp. Dew Point Humidity Pressure Visibility Wind Dir Wind Speed Gust Speed Precip Events Conditions
12:58 AM 67.6 °F 28.6 °F 23% 29.94 in 10.0 mi SE 8.1 mph - N/A   Clear
1:58 AM 64.8 °F 28.0 °F 25% 29.94 in 10.0 mi ESE 3.5 mph - N/A   Partly Cloudy
2:58 AM 62.8 °F 28.2 °F 27% 29.94 in 10.0 mi SE 4.6 mph - N/A   Mostly Cloudy
3:58 AM 64.0 °F 28.4 °F 26% 29.94 in 10.0 mi ESE 11.5 mph - N/A   Mostly Cloudy
4:58 AM 62.2 °F 27.9 °F 27% 29.94 in 10.0 mi SSE 4.6 mph - N/A   Scattered Clouds
5:58 AM 62.1 °F 28.6 °F 28% 29.96 in 10.0 mi SE 5.8 mph - N/A   Partly Cloudy
6:58 AM 62.8 °F 28.2 °F 27% 29.96 in 10.0 mi South 3.5 mph - N/A   Clear
7:58 AM 62.6 °F 28.9 °F 28% 29.98 in 10.0 mi SE 8.1 mph - N/A   Clear
8:58 AM 63.7 °F 30.0 °F 28% 30.00 in 10.0 mi South 5.8 mph - N/A   Clear
9:58 AM 66.6 °F 30.6 °F 26% 30.00 in 10.0 mi ESE 5.8 mph - N/A   Clear
10:58 AM 68.9 °F 29.5 °F 23% 29.99 in 10.0 mi SE 8.1 mph - N/A   Partly Cloudy
11:58 AM 71.8 °F 29.7 °F 21% 29.96 in 10.0 mi SE 9.2 mph - N/A   Clear
12:58 PM 74.5 °F 30.7 °F 20% 29.94 in 10.0 mi WSW 8.1 mph - N/A   Clear
1:58 PM 75.7 °F 30.6 °F 19% 29.93 in 10.0 mi Calm Calm - N/A   Partly Cloudy
2:58 PM 77.2 °F 30.4 °F 18% 29.91 in 10.0 mi NE 5.8 mph - N/A   Partly Cloudy
3:58 PM 74.7 °F 33.3 °F 22% 29.91 in 10.0 mi Calm Calm - N/A   Mostly Cloudy
4:58 PM 72.0 °F 32.2 °F 23% 29.93 in 10.0 mi NNE 3.5 mph - N/A   Mostly Cloudy
5:58 PM 69.1 °F 31.8 °F 25% 29.94 in 10.0 mi Calm Calm - N/A   Clear
6:58 PM 67.3 °F 33.1 °F 28% 29.95 in 10.0 mi NW 4.6 mph - N/A   Partly Cloudy
7:58 PM 66.2 °F 32.2 °F 28% 29.96 in 10.0 mi ESE 6.9 mph - N/A   Clear
8:58 PM 64.8 °F 31.8 °F 29% 29.98 in 10.0 mi South 3.5 mph - N/A   Clear
9:58 PM 66.4 °F 32.4 °F 28% 29.98 in 10.0 mi Calm Calm - 0.00 in   Scattered Clouds
10:58 PM 64.9 °F 31.1 °F 28% 29.98 in 10.0 mi SW 3.5 mph - N/A   Scattered Clouds
11:58 PM 63.1 °F 30.4 °F 29% 29.96 in 10.0 mi SE 4.6 mph - N/A   Clear